Regional Weather Roundup
Issued by NWS Little Rock, AR

Home | Current Version | Previous Version | Graphics & Text | Print | Product List | Glossary On
Versions: 1 2 3 4 5 6 7 8 9 10 11 12 13 14 15 16 17 18 19 20 21 22 23 24 25 26 27 28 29 30 31 32 33 34 35 36 37 38 39 40 41 42 43 44 45 46 47 48 49 50
282
ASUS44 KLZK 310205
RWRLZK

WEATHER ROUNDUP FOR ARKANSAS
NATIONAL WEATHER SERVICE LITTLE ROCK AR
900 PM CDT MON MAY 30 2016

NOTE: "FAIR" INDICATES FEW OR NO CLOUDS BELOW 12,000 FEET WITH NO
SIGNIFICANT WEATHER AND/OR OBSTRUCTIONS TO VISIBILITY.

ARZ001-003-010-029-310300-
NORTHWEST ARKANSAS

CITY           SKY/WX    TMP DP  RH WIND       PRES   REMARKS
FAYETTEVILLE   CLOUDY    66  66 100 E3        29.98F
FORT SMITH     CLOUDY    71  66  84 NE5       29.94S
HARRISON       CLOUDY    67  66  97 E3        30.02S
BENTONVILLE    CLOUDY    66  63  88 E6        29.99S
ROGERS           N/A     66  64  93 E7        30.00F
SILOAM SPGS    CLOUDY    66  57  72 CALM      29.99S
SPRINGDALE     CLOUDY    66  66 100 E7        30.00F
$$

ARZ004-005-016-310300-
NORTH CENTRAL ARKANSAS

CITY           SKY/WX    TMP DP  RH WIND       PRES   REMARKS
BATESVILLE     CLOUDY    66  63  88 NE7       29.99F
FLIPPIN        CLOUDY   N/A N/A N/A E5        29.98S
MTN HOME       LGT RAIN  67  65  93 NE6       30.00S
$$

ARZ040-041-310300-
WEST CENTRAL ARKANSAS

CITY           SKY/WX    TMP DP  RH WIND       PRES   REMARKS
MENA           CLOUDY    72  70  94 E8        29.97R
MOUNT IDA      CLOUDY    68  66  93 CALM      29.94F
$$

ARZ009-017-025-026-028-310300-
NORTHEAST ARKANSAS

CITY           SKY/WX    TMP DP  RH WIND       PRES   REMARKS
CORNING          N/A     75  72  88 NW7       29.97F
JONESBORO      CLOUDY    77  69  76 N7        29.95F
NEWPORT        CLOUDY    71  70  97 NW8       29.98R
WALNUT RIDGE   CLOUDY    72  66  83 NW8       29.97F
BLYTHEVILLE    CLOUDY    80  68  66 NE5       29.96F
$$

ARZ022-023-033-042-044-310300-
CENTRAL ARKANSAS

CITY           SKY/WX    TMP DP  RH WIND       PRES   REMARKS
LITTLE ROCK    LGT RAIN  68  64  87 E7        29.98F
N LITTLE ROCK    N/A     65  63  92 S8G16     29.95F
JACKSONVILLE   LGT RAIN  66  66 100 E6        29.99F
SEARCY         TSTM      66  66 100 SW8       30.05R FOG
HOT SPRINGS    CLOUDY    68  65  90 E7        29.98S
RUSSELLVILLE   CLOUDY    71  70  96 CALM      29.96S
CLINTON        MOCLDY    72  70  94 CALM      30.00R
$$

ARZ036-310300-
EAST ARKANSAS

CITY           SKY/WX    TMP DP  RH WIND       PRES   REMARKS
WEST MEMPHIS   CLOUDY    79  66  64 NE5       29.95S
$$

ARZ050-053-066-070-073-310300-
SOUTHWEST ARKANSAS

CITY           SKY/WX    TMP DP  RH WIND       PRES   REMARKS
ARKADELPHIA    FAIR      68  67  96 VRB5      29.97S
CAMDEN         CLOUDY    70  66  88 NE5       29.96S
TEXARKANA      MOCLDY    72  65  78 E6        29.92S
EL DORADO      CLOUDY    72  70  93 NE6       29.95R
DE QUEEN       CLOUDY    75  69  81 SE5       29.91R
$$

ARZ056-057-069-310300-
SOUTHEAST ARKANSAS

CITY           SKY/WX    TMP DP  RH WIND       PRES   REMARKS
STUTTGART      CLOUDY    68  61  77 S8        30.02F
MONTICELLO     PTCLDY    71  66  84 VRB3      29.97F

$$






USA.gov is the U.S. government's official web portal to all federal, state and local government web resources and services.